Overview Statistics Trail Chart Weather Telemetry Raw packets
 

This is the latest recevied weather packets stored in our database for station/object WC4PEM-4. If no packets are shown the sender has not sent any weather packets the latest 10 day(s).

<< 39 40 41 42 43 44 45 >>
Time Temp. Humidity Pressure Rain* Wind** Luminosity Snow
1788362899 31.11° C 76% 1016.1 hPa 0 mm - - -
1788362776 31.11° C 76% 1016.1 hPa 0 mm - - -
1788362476 30.56° C 74% 1016.3 hPa 0 mm - - -
1788362176 30.56° C 76% 1016.2 hPa 0 mm - - -
1788362045 30° C 76% 1016.3 hPa 0 mm - - -
1788361876 30° C 76% 1016.3 hPa 0 mm - - -
1788361692 30° C 77% 1016.2 hPa 0 mm - - -
1788361576 30° C 77% 1016.2 hPa 0 mm - - -
1788361276 30° C 78% 1016.2 hPa 0 mm - - -
1788361157 30° C 77% 1016.3 hPa 0 mm - - -
1788360976 30° C 77% 1016.3 hPa 0 mm - - -
1788360676 30° C 78% 1016.2 hPa 0 mm - - -
1788360487 30° C 77% 1016.2 hPa 0 mm - - -
1788360376 30° C 77% 1016.2 hPa 0 mm - - -
1788360076 30° C 79% 1016.1 hPa 0 mm - - -
1788359938 29.44° C 82% 1016.1 hPa 0 mm - - -
1788359776 29.44° C 82% 1016.1 hPa 0 mm - - -
1788359476 29.44° C 80% 1016.1 hPa 0 mm - - -
1788359176 28.89° C 82% 1016.2 hPa 0 mm - - -
1788358876 28.89° C 83% 1016.2 hPa 0 mm - - -
1788358699 28.89° C 83% 1016.1 hPa 0 mm - - -
1788358576 28.89° C 83% 1016.1 hPa 0 mm - - -
1788358276 28.33° C 84% 1016.2 hPa 0.25 mm - - -
1788358112 28.33° C 84% 1016.2 hPa 0.25 mm - - -
1788357976 28.33° C 84% 1016.2 hPa 0.25 mm - - -

* Rain latest hour (hover to see other rain measurements)
** Current wind speed in m/s (hover to see current wind gust speed)